Location: Cajon Junction
(34.3117°N, 117.4748°W)
Time: 14:49:40
(UTC+00:00)

Cosmos 1933 Rocket - Pass Details

Date: 18 April 2024
Orbit: 602 x 628 km, 82.5° (Epoch: 19 May)

Event Time Altitude Azimuth Distance (km) Brightness Sun altitude
Rises 12:34:44 0° 342° (NNW) 2,872 7.0 -8.6°
Reaches altitude 10° 12:37:07 10° 333° (NNW) 1,960 6.1 -8.2°
Maximum altitude 12:41:00 33° 269° (W) 1,022 4.2 -7.4°
Drops below altitude 10° 12:44:51 10° 205° (SSW) 1,940 5.7 -6.6°
Sets 12:47:12 0° 196° (SSW) 2,837 6.6 -6.2°
